Date,TemperatureHighF,TemperatureAvgF,TemperatureLowF,DewpointHighF,DewpointAvgF,DewpointLowF,HumidityHigh,HumidityAvg,HumidityLow,PressureMaxIn,PressureMinIn,WindSpeedMaxMPH,WindSpeedAvgMPH,GustSpeedMaxMPH,PrecipitationSumIn
2013-1-1,55,45,36,40,38,34,95,79,53,30.30,30.23,5,0,12,0.01
2013-1-2,60,43,32,40,35,30,100,78,41,30.27,30.15,2,0,7,0.01
2013-1-3,59,42,32,44,37,31,96,83,49,30.29,30.18,1,0,6,0.00
2013-1-4,60,45,35,43,38,33,96,78,44,30.31,30.19,1,0,5,0.01
2013-1-5,56,47,37,49,44,35,95,87,71,30.28,30.09,6,0,12,0.05
2013-1-6,52,48,46,48,45,44,95,90,78,30.21,30.07,3,0,9,0.11
2013-1-20,69,48,34,43,37,32,95,70,27,30.25,30.14,1,0,5,0.00
2013-1-21,68,48,33,46,37,31,94,72,28,30.20,30.09,2,0,6,0.00
2013-1-22,63,48,35,45,40,33,95,76,47,30.12,30.02,1,0,5,0.00
2013-1-23,56,51,48,52,47,43,95,87,75,30.10,29.98,3,0,8,0.17
2013-1-24,58,54,51,53,51,50,96,90,81,30.21,30.08,1,0,7,0.00
2013-1-25,66,58,51,57,53,49,96,87,71,30.20,30.06,2,0,9,0.01
2013-1-26,58,52,48,50,45,41,95,79,56,30.11,30.03,9,2,21,0.00
2013-1-27,57,50,45,43,40,30,82,70,36,30.20,30.10,7,2,15,0.00
2013-1-28,58,50,44,45,42,39,89,75,58,30.32,30.19,8,2,17,0.00
2013-1-29,59,50,44,46,43,41,89,78,59,30.39,30.28,6,0,12,0.00
2013-1-30,70,52,39,49,42,38,96,73,37,30.36,30.27,3,0,8,0.00
2013-1-31,69,51,38,49,43,36,96,78,44,30.31,30.19,2,0,6,0.01
2013-2-1,68,52,39,50,44,38,97,77,43,30.23,30.13,3,0,7,0.01
2013-2-2,59,50,44,51,46,42,95,88,74,30.32,30.23,1,0,6,0.00
2013-2-3,60,51,42,47,44,40,92,79,60,30.28,30.16,3,0,12,0.00
2013-2-4,58,48,40,50,45,38,96,90,76,30.21,30.09,2,0,7,0.01
2013-2-5,57,52,46,48,45,42,95,79,69,30.18,30.11,9,2,21,0.00
2013-2-6,60,48,37,46,42,36,96,79,54,30.22,30.14,8,1,20,0.00
2013-2-7,56,46,38,48,41,36,96,82,55,30.20,30.03,8,1,15,0.16
2013-2-8,54,46,40,44,40,34,95,80,58,30.05,29.97,6,1,13,0.05
2013-2-9,62,48,35,39,34,28,89,61,29,30.11,30.01,2,0,8,0.00
2013-2-10,64,46,33,45,36,30,94,72,36,30.15,30.04,3,0,7,0.00
2013-2-11,66,49,35,40,34,29,92,62,26,30.25,30.09,3,0,12,0.00
2013-2-12,62,48,36,46,40,33,96,76,45,30.38,30.26,2,0,7,0.00
2013-2-13,64,49,37,51,43,35,96,81,51,30.36,30.23,1,0,118,0.00
2013-2-14,71,54,39,47,42,37,95,68,36,30.27,30.16,2,0,6,0.00
2013-2-15,74,56,40,50,44,38,92,67,37,30.28,30.21,2,0,6,0.00
2013-2-16,70,55,42,54,46,40,95,75,49,30.24,30.07,3,0,7,0.00
2013-2-17,64,51,41,49,44,39,97,77,53,30.09,29.98,3,0,12,0.01
2013-2-18,54,47,40,44,40,37,96,78,57,30.08,30.00,7,1,14,0.00
2013-2-19,50,46,42,45,40,36,90,80,66,30.01,29.79,10,2,21,0.32
2013-2-20,59,46,34,44,38,32,94,76,42,30.09,29.86,8,1,17,0.00
2013-2-21,60,50,41,42,38,34,91,66,38,30.19,30.07,6,2,18,0.00
2013-2-22,64,49,35,45,39,33,92,71,34,30.28,30.19,6,1,12,0.00
2013-2-23,58,52,48,48,41,36,91,69,44,30.28,30.19,9,3,20,0.01
2013-2-24,64,53,41,37,32,26,73,47,25,30.28,30.18,6,1,15,0.00
2013-2-25,62,50,38,46,41,33,93,71,53,30.29,30.19,9,1,15,0.00
2013-2-26,68,51,37,43,34,26,94,59,21,30.23,30.15,5,0,9,0.00
2013-2-27,68,53,36,47,40,33,90,65,35,30.39,30.23,5,0,14,0.00
2013-2-28,68,55,43,53,48,41,94,78,58,30.47,30.39,8,1,16,0.00
2013-3-1,74,57,46,55,50,44,97,78,45,30.45,30.25,5,0,9,0.00
2013-3-2,69,57,48,55,50,46,93,77,58,30.26,30.08,5,0,9,0.00
2013-3-3,66,55,49,52,48,45,90,78,52,30.13,30.06,8,1,14,0.00
2013-3-4,59,50,43,48,44,39,91,79,60,30.18,30.08,6,1,17,0.00
2013-3-5,60,50,40,47,42,38,93,75,55,30.10,29.87,12,3,25,0.15
2013-3-6,57,51,42,49,43,39,90,76,55,30.09,29.88,12,3,25,0.29
2013-3-7,59,49,40,46,42,38,93,79,51,30.02,29.87,6,0,12,0.21
2013-3-8,59,51,45,47,44,42,94,78,57,30.09,29.85,10,2,21,0.03
2013-3-9,67,55,45,46,42,38,84,63,34,30.33,30.09,6,1,13,0.00
2013-3-10,72,54,39,49,41,34,94,66,27,30.37,30.26,2,0,8,0.00
2013-3-11,74,55,40,51,45,38,95,71,36,30.28,30.11,5,0,9,0.00
2013-3-12,70,55,43,55,49,41,95,79,53,30.18,30.08,2,0,8,0.00
2013-3-13,77,59,44,56,50,42,96,77,45,30.18,30.06,6,1,12,0.01
2013-3-14,72,58,47,54,48,36,96,74,29,30.18,30.11,6,0,15,0.00
2013-3-15,71,56,44,54,47,41,91,73,44,30.15,30.06,5,0,14,0.00
2013-3-16,72,57,48,55,47,39,95,72,34,30.13,30.05,8,2,20,0.00
2013-3-17,68,56,49,48,43,38,80,63,39,30.17,30.07,6,1,13,0.00
2013-3-18,66,54,42,51,45,39,93,74,54,30.15,30.05,3,0,12,0.00
2013-3-19,70,55,46,51,44,33,91,70,37,30.15,30.08,7,1,14,0.05
2013-3-20,67,57,51,56,52,48,94,82,64,30.16,30.08,8,1,14,0.03
2013-3-21,64,54,46,50,43,41,86,69,43,30.16,30.03,6,1,15,0.00
2013-3-22,68,53,40,45,36,25,94,59,21,30.14,30.04,8,2,16,0.00
2013-3-23,70,54,40,46,38,28,90,61,21,30.16,30.05,5,0,9,0.00
2013-3-24,69,54,42,50,44,39,93,71,46,30.11,29.98,6,1,12,0.00
2013-3-25,61,51,42,47,43,40,92,76,58,30.05,29.97,9,1,16,0.00
2013-3-26,66,55,48,50,46,43,86,70,52,30.03,29.94,7,1,13,0.00
2013-3-27,68,58,49,54,50,45,89,77,60,30.03,29.97,8,1,17,0.00
2013-3-28,71,60,55,57,54,52,96,82,60,30.10,30.02,6,1,13,0.05
2013-3-29,77,62,50,55,52,48,97,75,46,30.10,30.01,6,1,13,0.01
2013-3-30,72,60,55,57,54,52,91,81,57,30.09,29.98,7,1,15,0.10
2013-3-31,68,60,53,56,52,50,96,76,53,30.08,30.01,9,2,20,0.08
2013-4-1,67,59,52,55,53,48,96,81,60,30.17,30.06,7,1,14,0.22
2013-4-2,69,56,45,55,50,44,95,80,61,30.20,30.10,5,1,117,0.00
2013-4-3,77,59,51,56,51,48,91,77,40,30.17,29.99,6,1,12,0.00
2013-4-4,67,59,54,57,54,50,96,84,67,30.14,30.02,8,2,15,0.37
2013-4-5,66,60,54,55,52,50,93,78,59,30.21,30.14,8,1,14,0.02
2013-4-6,66,58,52,56,52,48,90,80,66,30.22,30.16,5,1,12,0.00
2013-4-7,66,58,52,55,51,47,90,78,60,30.20,29.90,7,2,22,0.08
2013-4-8,65,56,50,49,41,35,85,60,38,30.03,29.86,15,6,30,0.01
2013-4-9,73,62,50,44,40,35,76,46,28,30.10,30.03,10,3,21,0.00
2013-4-10,85,66,50,52,47,43,81,55,29,30.19,30.06,10,2,21,0.00
2013-4-11,72,60,51,52,46,42,83,63,37,30.09,29.87,8,2,17,0.00
2013-4-12,73,57,45,54,46,42,93,70,44,29.94,29.85,8,1,16,0.00
2013-4-13,66,56,46,50,44,40,90,67,45,29.93,29.87,10,2,22,0.00
2013-4-14,68,54,43,48,41,37,86,64,35,29.96,29.89,10,2,23,0.00
2013-4-15,59,51,46,49,41,37,89,69,49,29.98,29.89,12,4,32,0.00
2013-4-16,67,54,38,41,36,30,89,55,26,30.16,29.99,9,2,20,0.00
2013-4-17,68,60,51,41,35,27,63,39,22,30.28,30.16,9,3,20,0.00
2013-4-18,78,60,43,49,39,33,81,50,22,30.28,30.19,6,0,12,0.00
2013-4-19,79,62,46,56,48,41,90,61,36,30.24,30.09,5,1,13,0.00
2013-4-20,81,64,48,50,46,39,88,55,28,30.12,29.99,7,1,12,0.00
2013-4-21,87,67,48,55,48,40,90,57,22,30.05,29.93,3,0,9,0.00
2013-4-22,89,70,52,52,47,38,84,50,17,29.98,29.84,6,1,12,0.00
2013-4-23,83,65,50,53,42,27,84,52,14,29.95,29.87,5,1,15,0.00
2013-4-24,69,58,48,54,50,45,90,73,54,29.96,29.84,6,1,14,0.00
2013-4-25,69,58,48,53,50,46,93,74,55,30.15,29.96,9,1,16,0.00
2013-4-26,69,58,51,53,49,46,86,73,55,30.24,30.15,5,1,13,0.00
2013-4-27,71,58,49,55,50,45,87,75,54,30.25,30.10,5,0,12,0.00
2013-4-28,82,63,47,58,52,45,94,69,37,30.11,29.89,5,1,12,0.00
2013-4-29,89,70,54,62,52,46,89,57,25,29.91,29.78,7,1,14,0.00
2013-4-30,82,66,52,53,46,36,85,54,20,29.87,29.79,6,1,14,0.00
2013-5-1,86,70,52,52,37,25,71,35,13,30.09,29.85,6,1,12,0.00
2013-5-2,92,72,51,48,38,25,81,38,12,30.16,30.08,8,1,13,0.00
2013-5-3,91,71,51,54,41,30,62,39,13,30.10,29.81,6,1,13,0.00
2013-5-4,88,68,53,59,50,44,75,55,27,29.81,29.55,7,1,16,0.00
2013-5-5,70,63,57,51,49,47,70,61,47,29.82,29.62,12,4,27,0.00
2013-5-6,70,63,53,54,51,48,86,65,51,29.98,29.82,5,1,12,0.00
2013-5-7,73,63,55,55,51,49,82,66,48,30.06,29.97,7,1,13,0.00
2013-5-8,66,58,52,53,51,48,89,78,60,30.18,30.06,8,2,18,0.00
2013-5-9,67,58,53,52,50,48,86,75,58,30.21,30.11,9,2,20,0.00
2013-5-10,72,60,53,57,52,48,89,76,56,30.22,30.13,7,1,15,0.00
2013-5-11,82,64,53,60,54,49,90,73,38,30.18,30.05,5,0,9,0.00
2013-5-12,80,65,51,61,53,48,94,68,40,30.16,30.05,6,1,14,0.00
2013-5-13,77,62,49,59,52,46,92,70,49,30.12,29.98,6,1,14,0.00
2013-5-14,73,61,52,56,49,44,87,64,43,30.05,29.97,8,1,20,0.00
2013-5-15,65,59,51,51,48,44,79,67,53,30.10,30.04,9,4,21,0.00
2013-5-16,62,62,62,51,51,51,67,67,67,30.06,30.06,5,5,5,0.00
2013-5-17,62,62,62,51,51,51,67,67,67,30.06,30.06,5,5,5,0.00
2013-5-18,62,62,62,51,51,51,67,67,67,30.06,30.06,5,5,5,0.00
2013-5-19,62,62,62,51,51,51,67,67,67,30.06,30.06,5,5,5,0.00
2013-5-20,62,62,62,51,51,51,67,67,67,30.06,30.06,5,5,5,0.00
2013-5-21,62,60,52,51,49,41,67,67,61,30.06,29.98,7,5,23,0.00
2013-5-22,64,55,48,44,39,32,77,57,31,30.04,29.95,8,2,22,0.00
2013-5-23,67,57,50,46,43,40,79,62,43,30.02,29.94,8,2,20,0.00
2013-5-24,70,55,43,49,44,40,90,67,41,30.02,29.98,8,2,20,0.00
2013-5-25,61,56,48,50,47,43,86,73,58,30.09,30.00,9,3,21,0.00
2013-5-26,70,60,54,54,52,49,87,76,56,30.17,30.08,8,2,20,0.00
2013-5-27,67,60,54,56,53,50,89,78,60,30.17,30.02,6,1,14,0.02
2013-5-28,70,62,56,58,54,49,91,77,58,30.02,29.95,7,2,14,0.00
2013-5-29,69,62,56,56,51,47,81,69,55,29.99,29.94,9,2,20,0.00
2013-5-30,74,61,47,50,45,42,90,60,34,30.01,29.96,7,2,18,0.00
2013-5-31,88,67,48,55,47,43,87,54,21,30.04,29.92,5,1,13,0.00
2013-6-1,94,71,52,58,51,46,86,53,20,29.95,29.78,7,1,12,0.00
2013-6-2,79,66,53,56,52,48,84,63,43,29.81,29.68,5,1,12,0.00
2013-6-3,75,64,53,57,53,49,90,70,49,29.87,29.74,6,1,14,0.00
2013-6-4,75,63,54,56,54,50,90,72,51,29.98,29.86,6,1,13,0.00
2013-6-5,70,62,56,55,53,51,85,72,58,30.01,29.92,6,1,13,0.00
2013-6-6,74,63,56,58,54,51,86,73,55,29.97,29.86,6,1,12,0.00
2013-6-7,86,68,56,63,57,52,88,71,44,29.92,29.74,6,0,12,0.00
2013-6-8,86,70,58,63,58,53,88,67,42,29.81,29.71,5,1,12,0.00
2013-6-9,77,66,57,60,56,53,89,71,51,29.89,29.81,7,2,17,0.00
2013-6-10,73,64,57,55,53,50,80,68,52,29.95,29.85,9,2,18,0.00
2013-6-11,73,63,56,57,53,49,83,72,55,30.00,29.92,6,1,13,0.00
2013-6-12,75,62,50,54,48,44,89,62,36,30.03,29.93,7,2,20,0.00
2013-6-13,77,63,47,53,47,41,86,59,28,30.10,30.01,7,1,17,0.00
2013-6-14,87,68,50,55,47,40,88,54,21,30.01,29.83,5,1,14,0.00
2013-6-15,70,59,49,53,50,46,91,73,51,29.94,29.86,6,1,14,0.00
2013-6-16,77,62,49,56,51,46,93,70,42,30.11,30.02,5,1,18,0.00
2013-6-17,73,63,52,57,53,48,86,72,56,30.12,30.07,9,2,20,0.00
2013-6-18,69,62,56,53,51,48,86,70,47,30.07,30.03,8,3,24,0.00
2013-6-19,73,62,55,52,49,47,82,63,44,30.08,30.02,8,2,20,0.00
2013-6-20,77,62,48,54,48,44,89,61,31,30.03,29.97,7,2,20,0.00
2013-6-21,82,64,50,57,50,45,88,63,32,29.99,29.94,7,1,20,0.00
2013-6-22,86,66,52,60,51,47,90,64,27,29.95,29.87,7,2,18,0.00
2013-6-23,73,64,58,61,58,54,88,79,66,29.91,29.83,5,1,12,0.00
2013-6-24,68,64,60,62,59,57,91,85,76,29.92,29.81,3,0,9,0.04
2013-6-25,78,69,64,65,62,58,88,78,65,30.00,29.90,7,2,15,0.01
2013-6-26,83,72,62,67,62,59,93,74,53,30.07,29.99,8,2,17,0.00
2013-6-27,88,73,59,66,59,54,93,66,33,30.09,30.02,7,1,14,0.00
2013-6-28,94,76,59,67,61,55,88,63,38,30.06,29.91,5,0,12,0.00
2013-6-29,97,77,60,64,59,56,89,59,25,29.95,29.82,7,1,13,0.00
2013-6-30,87,72,59,64,58,55,87,64,38,29.87,29.79,6,1,12,0.00
2013-7-1,95,74,59,65,59,52,92,65,24,29.86,29.81,6,1,12,0.00
2013-7-2,86,72,63,66,61,57,84,69,49,29.93,29.84,3,0,10,0.00
2013-7-3,87,71,61,65,61,57,87,71,46,29.93,29.78,5,0,10,0.00
2013-7-4,94,75,65,67,60,47,84,61,31,29.80,29.70,5,1,14,0.00
2013-7-5,74,65,58,56,53,48,80,66,45,29.84,29.74,8,2,20,0.00
2013-7-6,76,63,53,57,53,50,91,72,51,29.82,29.74,5,1,13,0.00
2013-7-7,76,66,59,59,56,53,84,70,51,29.88,29.78,5,1,13,0.00
2013-7-8,76,64,56,59,56,52,89,76,55,29.99,29.88,3,0,10,0.00
2013-7-9,83,68,57,62,58,53,90,72,44,30.04,29.93,3,0,12,0.00
2013-7-10,80,65,54,60,56,51,91,72,47,30.00,29.89,5,0,12,0.00
2013-7-11,76,64,58,58,54,52,87,71,49,29.97,29.88,5,1,15,0.00
2013-7-12,82,66,58,58,54,51,86,68,37,29.95,29.87,6,1,14,0.00
2013-7-13,86,67,52,60,53,46,93,66,28,29.98,29.89,5,1,13,0.00
2013-7-14,76,64,53,58,54,49,92,72,50,30.02,29.90,6,1,12,0.00
2013-7-15,74,62,56,57,53,51,86,74,52,29.95,29.84,9,1,15,0.00
2013-7-16,72,62,55,57,54,51,86,74,56,30.06,29.89,9,2,15,0.00
2013-7-17,75,64,57,59,55,52,85,74,55,30.12,30.04,6,1,12,0.00
2013-7-18,81,66,55,62,55,51,88,70,37,30.09,29.95,7,1,16,0.00
2013-7-19,78,65,56,60,55,52,90,73,47,29.98,29.83,5,1,12,0.00
2013-7-20,78,64,56,60,55,52,89,74,49,29.89,29.75,5,0,12,0.00
2013-7-21,76,65,56,61,56,52,88,73,55,29.89,29.79,5,1,12,0.00
2013-7-22,76,66,57,62,58,54,90,77,60,29.98,29.89,3,0,10,0.00
2013-7-23,76,67,61,62,59,57,87,76,57,30.01,29.96,3,0,12,0.00
2013-7-24,83,68,58,63,59,55,94,73,47,30.01,29.91,3,0,12,0.00
2013-7-25,82,66,56,61,57,53,92,73,47,30.05,29.96,3,0,12,0.00
2013-7-26,77,66,59,61,57,55,87,75,54,30.11,30.01,5,0,9,0.00
2013-7-27,75,66,60,60,58,55,87,76,56,30.06,29.87,3,0,12,0.00
2013-7-28,74,65,59,58,56,53,87,73,55,29.91,29.82,6,1,13,0.00
2013-7-29,75,64,53,58,54,50,91,72,54,30.02,29.86,6,1,12,0.00
2013-7-30,75,65,57,59,55,52,87,72,54,30.11,30.03,6,1,13,0.00
2013-7-31,76,64,58,57,54,51,87,70,44,30.10,30.04,9,2,20,0.00
2013-8-1,72,63,53,54,52,49,86,70,52,30.10,29.99,8,3,18,0.00
2013-8-2,76,63,50,58,52,48,94,71,46,30.01,29.91,8,1,15,0.00
2013-8-3,74,64,56,59,55,51,88,74,56,30.00,29.92,6,1,15,0.00
2013-8-4,73,63,57,58,54,52,87,75,54,30.03,29.95,5,1,12,0.00
2013-8-5,73,62,57,58,54,52,86,76,57,30.05,29.95,6,1,12,0.00
2013-8-6,76,64,57,58,55,53,87,74,52,30.07,30.00,6,1,117,0.00
2013-8-7,74,64,58,57,56,54,88,74,54,30.12,30.04,7,2,18,0.00
2013-8-8,72,63,56,59,56,53,89,77,61,30.06,29.96,7,1,14,0.00
2013-8-9,74,63,55,59,55,51,90,76,57,30.02,29.94,7,1,20,0.00
2013-8-10,77,65,58,60,57,54,87,76,54,30.07,30.01,8,1,16,0.00
2013-8-11,77,65,58,60,56,54,89,75,52,30.05,29.96,5,1,12,0.00
2013-8-12,84,68,58,62,56,52,89,70,33,30.01,29.94,6,1,13,0.00
2013-8-13,87,67,53,62,55,51,95,68,34,30.01,29.92,7,1,14,0.00
2013-8-14,79,66,54,61,56,51,92,73,42,30.01,29.94,6,1,13,0.00
2013-8-15,84,71,60,67,63,57,93,76,56,29.99,29.93,6,1,14,0.00
2013-8-16,86,71,63,65,60,52,92,71,44,30.01,29.96,7,1,15,0.00
2013-8-17,81,66,58,62,58,53,87,74,50,30.02,29.91,7,1,14,0.00
2013-8-18,88,72,59,65,61,56,92,72,44,29.91,29.77,5,0,12,0.00
2013-8-19,84,72,62,64,61,59,88,70,45,29.93,29.81,5,1,12,0.00
2013-8-20,79,69,62,61,58,54,88,71,48,29.91,29.82,7,1,13,0.00
2013-8-21,76,66,60,60,57,55,88,74,54,29.96,29.86,5,1,12,0.00
2013-8-22,76,65,57,59,56,53,88,73,53,30.00,29.90,6,1,14,0.00
2013-8-23,75,64,58,60,55,53,85,74,54,29.96,29.85,6,1,14,0.00
2013-8-24,80,66,54,62,57,51,93,74,50,29.93,29.88,6,1,14,0.00
2013-8-25,78,69,63,65,61,58,89,77,60,29.97,29.90,7,1,16,0.00
2013-8-26,78,67,60,61,57,51,90,70,43,30.03,29.93,7,1,14,0.00
2013-8-27,81,66,53,61,56,50,92,72,47,29.94,29.84,6,1,17,0.00
2013-8-28,82,68,56,65,60,54,94,76,55,29.97,29.89,6,1,14,0.00
2013-8-29,83,70,63,64,61,59,87,74,50,30.08,29.97,6,1,15,0.00
2013-8-30,90,72,60,67,60,54,95,69,39,30.06,29.94,6,1,14,0.00
2013-8-31,80,69,57,62,58,54,90,70,47,30.00,29.91,7,1,14,0.00
2013-9-1,83,70,62,62,59,56,87,71,43,29.97,29.89,5,1,13,0.00
2013-9-2,78,70,64,65,62,60,86,76,61,29.98,29.91,6,1,12,0.00
2013-9-3,80,68,55,59,56,51,91,69,40,30.02,29.96,7,2,16,0.00
2013-9-4,78,67,57,60,57,53,93,72,43,30.06,29.98,8,2,18,0.00
2013-9-5,77,68,61,59,56,53,87,68,45,30.04,29.99,8,2,20,0.00
2013-9-6,91,72,53,60,53,47,93,58,26,30.01,29.83,6,1,13,0.00
2013-9-7,95,74,57,65,54,49,80,54,23,29.89,29.80,5,0,10,0.00
2013-9-8,83,69,56,63,59,53,92,73,47,29.89,29.76,5,0,9,0.00
2013-9-9,91,69,57,64,59,47,92,73,23,29.83,29.71,5,0,12,0.00
2013-9-10,81,68,60,63,59,56,93,75,51,29.91,29.76,5,1,12,0.00
2013-9-11,77,66,56,61,57,53,93,76,56,30.00,29.91,5,1,15,0.00
2013-9-12,77,66,59,63,59,56,91,79,59,30.00,29.90,8,1,17,0.00
2013-9-13,77,65,59,62,56,53,91,75,52,29.94,29.80,8,1,17,0.00
2013-9-14,69,63,58,59,56,54,89,79,63,29.86,29.78,7,2,17,0.00
2013-9-15,79,66,59,60,57,54,88,74,49,29.89,29.83,6,1,14,0.00
2013-9-16,81,66,57,62,58,54,94,77,47,29.92,29.83,7,1,15,0.00
2013-9-17,72,65,57,57,55,51,85,71,51,29.92,29.87,9,2,25,0.00
2013-9-18,84,66,51,57,50,43,92,62,24,29.93,29.83,6,1,12,0.00
2013-9-19,88,67,50,59,51,45,93,60,23,29.88,29.75,6,1,14,0.00
2013-9-20,73,65,54,62,56,48,87,75,61,29.89,29.80,6,2,14,0.00
2013-9-21,68,63,57,60,58,54,92,83,70,29.92,29.83,7,1,15,0.54
2013-9-22,74,62,51,58,54,49,96,76,46,30.03,29.92,5,1,14,0.01
2013-9-23,82,66,52,61,55,50,94,69,40,30.04,29.95,6,1,14,0.00
2013-9-24,74,65,57,55,53,49,87,67,45,30.02,29.95,8,2,21,0.00
2013-9-25,68,61,56,52,49,44,81,64,45,29.96,29.86,8,3,21,0.00
2013-9-26,75,61,48,47,43,37,85,56,26,29.99,29.86,6,1,14,0.00
2013-9-27,80,62,47,49,41,33,87,52,19,30.11,30.00,5,0,13,0.00
2013-9-28,82,63,46,56,47,38,83,61,22,30.11,30.00,6,1,17,0.00
2013-9-29,76,65,52,60,56,50,93,75,55,30.12,30.06,5,1,13,0.00
2013-9-30,76,66,59,64,58,45,93,76,53,30.10,29.98,5,1,12,0.01
2013-10-1,73,63,55,52,50,44,82,63,44,30.04,29.93,6,1,13,0.00
2013-10-2,74,61,50,56,48,43,91,66,38,30.03,29.95,9,1,20,0.00
2013-10-3,72,62,49,45,41,36,79,48,28,30.09,29.96,7,2,14,0.00
2013-10-4,82,69,54,45,38,32,60,35,17,30.10,29.99,3,0,13,0.00
2013-10-5,85,66,48,44,36,29,68,39,14,30.20,30.09,3,0,8,0.00
2013-10-6,86,64,47,55,42,31,75,48,15,30.13,30.00,5,0,10,0.00
2013-10-7,83,65,49,54,42,30,71,46,16,30.00,29.88,5,0,12,0.00
2013-10-8,76,60,48,56,47,43,90,64,33,29.92,29.75,5,0,12,0.00
2013-10-9,71,58,47,50,45,41,89,65,40,29.77,29.65,3,0,9,0.00
2013-10-10,71,57,47,53,47,42,87,70,48,29.95,29.77,6,0,13,0.00
2013-10-11,65,56,48,54,49,44,91,78,61,30.02,29.91,3,0,9,0.00
2013-10-12,71,55,43,54,47,41,95,77,42,29.96,29.83,6,1,13,0.00
2013-10-13,74,59,45,52,46,40,94,66,32,30.00,29.87,5,0,10,0.00
2013-10-14,78,60,44,48,41,35,91,56,22,30.07,29.90,3,0,10,0.00
2013-10-15,80,62,45,44,38,34,83,48,20,29.99,29.85,5,0,12,0.00
2013-10-16,82,62,45,46,39,34,77,47,18,30.02,29.92,3,0,8,0.00
2013-10-17,83,61,45,53,41,31,79,52,18,30.02,29.87,3,0,8,0.00
2013-10-18,75,58,44,56,48,38,87,70,43,30.00,29.89,2,0,6,0.00
2013-10-19,80,59,45,58,49,42,94,73,36,30.02,29.90,2,0,5,0.00
2013-10-20,71,55,44,57,49,41,95,81,52,29.97,29.84,2,0,7,0.00
2013-10-21,66,54,44,54,49,42,96,83,62,29.96,29.84,2,0,7,0.00
2013-10-22,52,48,44,50,46,42,95,94,91,29.97,29.93,1,0,4,0.01
2013-10-28,62,56,52,50,48,44,84,73,56,29.80,29.63,8,2,115,0.00
2013-10-29,62,55,46,51,47,43,92,77,56,30.00,29.80,5,0,10,0.00
2013-10-30,68,53,41,51,44,39,96,76,43,30.11,30.00,3,0,10,0.00
2013-10-31,74,55,41,50,44,38,94,70,36,30.14,29.98,2,0,7,0.00
2013-11-1,76,57,42,49,45,40,93,68,31,30.10,29.93,2,0,6,0.00
2013-11-2,69,54,44,53,47,41,94,77,53,29.98,29.85,6,0,14,0.00
2013-11-3,64,52,41,45,39,27,95,65,25,30.01,29.86,3,0,10,0.00
2013-11-4,67,52,38,43,36,30,93,59,26,30.00,29.87,6,1,12,0.01
2013-11-5,74,56,41,43,38,33,81,54,24,30.16,30.01,2,0,6,0.00
2013-11-6,73,57,43,50,41,36,85,59,28,30.21,30.08,3,0,5,0.00
2013-11-7,73,58,47,50,44,42,83,63,34,30.11,29.99,3,0,7,0.00
2013-11-8,72,56,44,56,47,41,95,74,45,30.04,29.89,5,0,10,0.03
2013-11-9,69,54,42,54,46,40,95,77,46,29.98,29.89,2,0,6,0.00
2013-11-10,65,52,43,53,47,41,96,84,63,30.07,29.98,6,0,9,0.00
2013-11-11,65,57,47,54,51,45,95,81,61,30.11,30.01,2,0,6,0.00
2013-11-12,72,60,49,54,50,45,86,72,48,30.20,30.09,3,0,9,0.00
2013-11-13,74,57,45,56,50,43,96,79,45,30.20,30.03,2,0,7,0.00
2013-11-14,64,55,48,55,49,44,95,82,65,30.07,29.84,5,1,14,0.00
2013-11-15,66,52,44,46,42,36,87,71,34,29.84,29.66,7,1,14,0.00
2013-11-16,64,52,42,50,45,39,93,79,52,29.88,29.74,6,1,15,0.00
2013-11-17,63,51,42,50,44,40,95,80,56,30.04,29.88,7,1,12,0.00
2013-11-18,61,50,42,50,45,39,94,81,63,30.10,30.01,5,1,12,0.00
2013-11-19,62,55,47,55,51,44,95,86,67,30.05,29.89,2,0,6,0.38
2013-11-20,61,56,49,58,54,47,97,94,90,29.89,29.79,2,0,7,0.44
2013-11-21,62,54,47,50,43,32,94,69,37,29.94,29.84,5,0,17,0.03
2013-11-22,70,56,39,37,31,19,78,42,19,29.99,29.83,2,0,13,0.00
2013-11-23,69,52,39,45,38,34,89,63,27,30.05,29.90,2,0,5,0.00
2013-11-24,64,49,38,47,42,36,96,77,46,30.19,30.05,1,0,6,0.00
2013-11-25,65,49,38,48,41,35,96,77,43,30.28,30.18,2,0,5,0.00
2013-11-26,64,51,41,48,43,39,95,77,51,30.21,29.98,2,0,7,0.00
2013-11-27,65,52,40,49,44,39,95,77,49,29.97,29.76,2,0,5,0.00
2013-11-28,69,55,44,50,45,42,93,72,42,30.01,29.81,2,0,255,0.00
2013-11-29,52,45,41,45,41,37,93,88,77,30.16,30.01,67,1,255,0.00
2013-11-30,41,41,41,39,39,39,93,93,93,30.22,30.11,0,0,255,0.00
2013-12-1,41,41,41,39,39,39,93,93,93,30.30,30.14,0,0,255,0.00
2013-12-2,41,41,41,39,39,39,93,93,93,30.18,29.93,0,0,255,0.00
2013-12-3,41,41,41,39,39,39,93,93,93,29.92,29.80,0,0,255,0.00
2013-12-4,54,42,32,39,29,22,93,63,30,30.04,29.90,2,0,255,0.00
2013-12-5,53,38,26,29,24,16,87,61,24,30.14,30.04,3,0,6,0.00
2013-12-6,53,43,30,48,36,27,94,77,53,30.15,29.87,9,2,21,0.22
2013-12-7,51,44,32,48,33,25,90,66,40,30.21,29.87,9,2,20,0.07
2013-12-8,48,37,28,31,27,22,92,69,41,30.30,30.17,1,0,12,0.00
2013-12-9,53,34,29,28,24,21,84,71,29,30.38,30.28,1,0,5,0.00
2013-12-10,56,39,27,34,28,24,91,69,32,30.37,30.15,3,0,7,0.00
2013-12-11,59,42,32,33,30,28,87,68,33,30.21,30.11,2,0,6,0.00
2013-12-12,62,42,30,43,34,27,94,74,36,30.23,30.10,1,0,5,0.00
2013-12-13,60,43,32,46,37,30,94,80,49,30.30,30.19,2,0,5,0.01
2013-12-14,63,45,33,45,36,31,94,74,37,30.36,30.24,1,0,5,0.00
2013-12-15,63,45,32,42,36,30,94,74,40,30.33,30.17,2,0,4,0.00
2013-12-16,71,53,36,45,38,33,90,62,28,30.19,30.04,2,0,255,0.00
2013-12-17,64,55,38,47,42,35,90,63,40,30.13,29.98,2,0,255,0.00
2013-12-18,59,48,39,49,43,36,92,83,69,29.98,29.75,6,0,18,0.00
2013-12-19,59,50,39,45,38,24,93,65,35,29.89,29.68,8,1,20,0.00
2013-12-20,64,47,33,32,25,9,78,49,13,29.98,29.88,3,0,6,0.00
2013-12-21,62,48,37,50,41,31,92,78,58,30.03,29.92,5,0,12,0.00
2013-12-22,70,50,37,49,40,35,96,72,31,30.23,30.03,3,0,6,0.00
2013-12-23,64,48,37,47,40,35,94,76,44,30.34,30.23,2,0,5,0.00
2013-12-24,73,50,38,51,41,35,94,75,36,30.29,30.13,2,0,4,0.00
2013-12-25,70,49,36,48,39,33,94,73,37,30.25,30.12,3,0,6,0.00
2013-12-26,70,49,35,51,40,33,95,74,35,30.22,30.08,2,0,5,0.00
2013-12-27,62,46,35,47,40,33,95,80,50,30.19,30.06,1,0,4,0.00
2013-12-28,65,47,34,46,36,31,96,71,28,30.12,29.96,2,0,5,0.01
2013-12-29,68,49,36,33,29,20,81,53,18,30.13,30.01,2,0,5,0.00
2013-12-30,63,46,34,44,35,30,89,68,36,30.22,30.11,2,0,6,0.00
2013-12-31,59,44,36,48,39,33,95,83,57,30.23,30.08,2,0,6,0.00
2014-1-1,59,45,34,46,39,32,95,80,57,30.18,30.05,2,0,6,0.00
2014-1-2,65,48,36,45,38,34,93,71,39,30.13,29.99,2,0,5,0.00